Showing default

ICEYE-X76, 68502

Orbit data source: Space-Track

ICEYE-X76, 68502 is a payload satellite owned by ICEYE (PL) in SSO that was launched on Mon, 30 Mar 2026 UTC via an FALCON 9 launch vehicle from the Air Force Western Test Range (AFWTR). Payload-class satellites include a variety of spacecraft equipped with specific instruments for various scientific and technological missions. These include communications satellites like Starlink; space stations such as the ISS; scientific satellites like the Hubble; Earth observation satellites from companies like Planet Labs, Umbra, and HawkEye 360; GPS; miniature CubeSats for education and research; and military/defense satellites.

Loading next visibility...
Identifier
68502, 2026-067CQ
Orbit
SSO
Country
Flag of PLPL / POL
Related business
Manufacturer
ICEYE
Mission
Operational Commercial Radar Imaging
Bus & Motor
ICEYE, Unknown motor
Mass
120 kg wet, 120 kg dry
Launch date (UTC)
2026-03-30 (3 months ago)
Launch vehicle
FALCON 9
Launch site
Air Force Western Test Range (AFWTR)
Object type
Payload
Rocket body
Debris
Shape & HBR
Box + 1 Pan, 0.6 m
Radar Cross Section
0.776 m², Medium (>0.1 m² and < 1m²)

Expand to show TLE details & history
Last TLE update: 13 hours ago

TLE from 13 hours ago
0 ICEYE-X76
1 68502U 26067CQ  26193.88154102  .00000542  00000-0  59282-4 0  9993
2 68502  97.7640 151.7521 0000718 335.7023  24.4162 14.91747895 15557
Epoch: 2026-07-12T21:09Z
TLE epoch observation values (Epoch: 2026-07-12T21:09:25.144Z)
Latitude
0.00002°
Longitude
-96.37671°
Altitude
595.071 km
Speed
7.563 km/s
True Right ascension
10h 07m 00s
True Declination
0° 00' 00"
Sunlit
Object was in daylight at epoch
Visualization orbit readout
Latitude
Unknown
Longitude
Unknown
Altitude
Unknown
Speed
Unknown
Apparent Right ascension
Unknown
Apparent Declination
Unknown
Sunlit
N/A
Visualization observer readout
Local Sidereal Time
22:14:33
Azimuth
Unknown
Elevation
Unknown
Doppler factor
Unknown
Orbital elements
Apogee altitude
590.005 km
Perigee altitude
589.004 km
Semi-major axis
6,967.641 km
Eccentricity
0.00007
Inclination
97.764°
RAAN
151.7521°
Arg. of periapsis
335.7023°
True anomaly
24.4196°
Mean anomaly
24.4162°
Eccentric anomaly
24.4179°
Mean motion
3.73177 °/min
Orbital period
96.47 mins
BSTAR
0.000059282
Loading maneuver chart data...
Computing Atmospheric mass density...
Loading historical data...
Loading historical data...
Loading historical data...
Loading historical data...
Loading historical data...
Loading historical data...
Loading historical data...

Documentation

Showing up to 5 results
|